Location: Unspecified
(51.0950°N, 12.9690°E)
Time: 17:23:17
(UTC+00:00)

MOS 1-B - Pass Details

Date: 28 October 2021
Orbit: 905 x 913 km, 99.4° (Epoch: 02 December)

Event Time Altitude Azimuth Distance (km) Brightness Sun altitude
Rises 16:36:55 0° 158° (SSE) 3,527 7.3 -8.0°
Reaches altitude 10° 16:39:19 10° 158° (SSE) 2,589 6.6 -8.4°
Maximum altitude 16:45:05 82° 71° (ENE) 922 4.3 -9.3°
Drops below altitude 10° 16:50:54 10° 345° (NNW) 2,601 6.8 -10.2°
Sets 16:53:19 0° 345° (NNW) 3,546 7.5 -10.6°
